Detroit, MI

11:00 PM EST on December 02, 2016 (GMT -0500)
Detroit Metro Wayne County

Weather History for KDTW - January, 2014

Change the Weather History Date:

Friday, January 3, 2014

  Actual Average Record
Temperature  
Mean Temperature 4 °F 26 °F  
Max Temperature 12 °F 32 °F 59 °F (1950)
Min Temperature -5 °F 20 °F -15 °F (1879)
Degree Days  
Heating Degree Days 61 39  
Month to date heating degree days 167 117  
Since 1 July heating degree days 2646 2414  
Cooling Degree Days 0 0  
Month to date cooling degree days 0 0  
Year to date cooling degree days 0 0  
Moisture  
Dew Point -4 °F    
Average Humidity 70    
Maximum Humidity 87    
Minimum Humidity 53    
Precipitation  
Precipitation T in 0.08 in 1.11 in (1907)
Month to date precipitation 0.46 0.22  
Year to date precipitation 0.46 0.22  
Snow  
Snow T in 0.40 in 5.80 in (1914)
Month to date snowfall 10.8 1.2  
Since 1 July snowfall 27.5 12.4  
Snow Depth 8.00 in    
Sea Level Pressure  
Sea Level Pressure 30.39 in    
Wind  
Wind Speed 9 mph (SSW)    
Max Wind Speed 17 mph    
Max Gust Speed 23 mph    
Visibility 10 miles    
Events      
T = Trace of Precipitation, MM = Missing Value Source: NWS Daily Summary

Daily Weather History Graph

Daily Weather History Graph

Search for Another Location

Airport or City:

Trip Planner

Search our weather history database for the weather conditions in past years. The results will help you decide how hot, cold, wet, or windy it might be!

Date:

Astronomy

Jan. 03, 2014 Rise Set
Actual Time 8:02 AM EST 5:13 PM EST
Civil Twilight 7:30 AM EST 5:45 PM EST
Nautical Twilight 6:55 AM EST 6:20 PM EST
Astronomical Twilight 6:21 AM EST 6:54 PM EST
Moon 9:24 AM EST 8:25 PM EST
Length of Visible Light 10h 14m
Length of Day
9h 11m
Waxing Crescent, 8% of the Moon is Illuminated
Jan 3
Waxing Crescent
Jan 7
First Quarter
Jan 15
Full
Jan 24
Last Quarter
Jan 30
New

Hourly Weather History & Observations

Time (EST) Temp. Windchill Dew Point Humidity Pressure Visibility Wind Dir Wind Speed Gust Speed Precip Events Conditions
12:53 AM 3.0 °F -14.8 °F -6.0 °F 66% 30.31 in 10.0 mi NW 13.8 mph - N/A   Partly Cloudy
1:53 AM 1.9 °F -14.7 °F -6.0 °F 69% 30.32 in 10.0 mi NW 11.5 mph - N/A   Clear
2:53 AM -0.0 °F -14.2 °F -7.1 °F 72% 30.36 in 10.0 mi WNW 8.1 mph - N/A   Clear
3:53 AM -0.9 °F -16.4 °F -7.1 °F 75% 30.39 in 10.0 mi WNW 9.2 mph - N/A   Clear
4:53 AM -0.9 °F -15.3 °F -7.1 °F 75% 30.40 in 10.0 mi WNW 8.1 mph - N/A   Clear
5:53 AM -2.0 °F -16.6 °F -7.1 °F 79% 30.42 in 10.0 mi WNW 8.1 mph - N/A   Clear
6:53 AM -2.9 °F -16.5 °F -7.1 °F 82% 30.44 in 10.0 mi WNW 6.9 mph - N/A   Clear
7:53 AM -4.0 °F -19.0 °F -8.0 °F 83% 30.45 in 10.0 mi WNW 8.1 mph - N/A   Clear
8:53 AM -2.9 °F -11.2 °F -8.0 °F 79% 30.46 in 10.0 mi WNW 3.5 mph - N/A   Clear
9:53 AM 1.9 °F - -5.1 °F 72% 30.47 in 9.0 mi Calm Calm - N/A   Partly Cloudy
10:53 AM 1.9 °F -5.6 °F -4.0 °F 76% 30.48 in 10.0 mi South 3.5 mph - N/A   Scattered Clouds
11:53 AM 6.1 °F -0.9 °F -2.9 °F 67% 30.47 in 10.0 mi South 3.5 mph - N/A   Scattered Clouds
12:53 PM 10.0 °F 3.6 °F -2.0 °F 58% 30.45 in 10.0 mi SSW 3.5 mph - N/A   Scattered Clouds
1:53 PM 12.0 °F 1.5 °F -2.9 °F 51% 30.41 in 10.0 mi South 6.9 mph - N/A   Scattered Clouds
2:53 PM 10.9 °F -1.8 °F -2.0 °F 56% 30.43 in 10.0 mi South 9.2 mph - N/A   Partly Cloudy
3:53 PM 10.0 °F -4.5 °F -2.0 °F 58% 30.42 in 10.0 mi South 11.5 mph - N/A   Scattered Clouds
4:53 PM 8.1 °F -6.2 °F -2.9 °F 61% 30.41 in 10.0 mi South 10.4 mph - N/A   Scattered Clouds
5:53 PM 7.0 °F -4.5 °F -4.0 °F 61% 30.39 in 10.0 mi South 6.9 mph - N/A   Mostly Cloudy
6:53 PM 8.1 °F -6.2 °F -0.9 °F 67% 30.37 in 10.0 mi SSE 10.4 mph - N/A   Overcast
7:53 PM 8.1 °F -5.3 °F -0.9 °F 67% 30.37 in 10.0 mi SSE 9.2 mph - N/A   Scattered Clouds
8:53 PM 10.0 °F -5.9 °F -0.0 °F 64% 30.32 in 10.0 mi South 13.8 mph - N/A   Overcast
9:53 PM 10.9 °F -5.4 °F -0.0 °F 61% 30.28 in 10.0 mi SSE 15.0 mph - N/A   Overcast
10:53 PM 10.9 °F -4.1 °F 1.0 °F 64% 30.25 in 10.0 mi South 12.7 mph - N/A   Mostly Cloudy
11:53 PM 10.9 °F -5.9 °F 1.0 °F 64% 30.22 in 10.0 mi SSE 16.1 mph 23.0 mph N/A   Partly Cloudy